Weather reports worldwide

Advertisment
Fair Isle, United Kingdom (3008): temperature & dewpoint: 08.12.2017 18:00:00 - 14.12.2017 18:00:00 (GMT)Fair Isle, United Kingdom (3008): temperature -20cm & temperature -100cm: 08.12.2017 18:00:00 - 14.12.2017 18:00:00 (GMT)Fair Isle, United Kingdom (3008): wind speed & gusts: 08.12.2017 18:00:00 - 14.12.2017 18:00:00 (GMT)Fair Isle, United Kingdom (3008): wind direction: 08.12.2017 18:00:00 - 14.12.2017 18:00:00 (GMT)Fair Isle, United Kingdom (3008): reduced air pressure: 08.12.2017 18:00:00 - 14.12.2017 18:00:00 (GMT)Fair Isle, United Kingdom (3008): visibility: 08.12.2017 18:00:00 - 14.12.2017 18:00:00 (GMT)Fair Isle, United Kingdom (3008): precipitation: 08.12.2017 18:00:00 - 14.12.2017 18:00:00 (GMT)
Date & Time tt [°C] td [°C] tt -20cm [°C] tt -100cm [°C] ff [km/h] ff [kn] fx [km/h] fx [kn] dd ppp [hPa] vv [km] rr [mm]
14.12.2017 18:00:00 5,0 3,4 - - 24 13 - - NNE 983,5 21 0,0
14.12.2017 17:00:00 4,7 2,1 - - 15 8 - - N 982,5 30 0,0
14.12.2017 16:00:00 4,0 1,4 - - 15 8 - - NE 981,4 45 0,0
14.12.2017 15:00:00 4,5 1,9 - - 15 8 - - ENE 980,3 45 0,0
14.12.2017 14:00:00 5,5 3,0 - - 11 6 - - E 979,2 26 0,0
14.12.2017 13:00:00 5,0 2,7 - - 13 7 - - SE 978,2 29 0,0
14.12.2017 12:00:00 4,7 2,4 - - 18 10 - - SSE 977,1 30 0,0
14.12.2017 11:00:00 4,6 2,5 - - 21 11 - - S 976,3 40 0,0
14.12.2017 10:00:00 3,9 1,8 - - 16 9 - - WSW 975,8 13 0,0
14.12.2017 09:00:00 3,7 2,5 5,5 6,7 26 14 - - SW 975,2 35 0,0
14.12.2017 08:00:00 2,9 1,8 - - 34 18 - - SW 974,6 16 0,0
14.12.2017 07:00:00 4,3 2,2 - - 29 16 - - W 973,8 10 0,0
14.12.2017 06:00:00 4,0 2,0 - - 29 16 50 27 SW 973,5 19 0,4
14.12.2017 05:00:00 3,9 2,3 - - 29 16 48 26 WSW 973,7 9 0,4
14.12.2017 04:00:00 3,4 1,4 - - 31 17 57 31 W 973,4 11 1,0
14.12.2017 03:00:00 4,6 1,4 - - 22 12 52 28 W 973,4 7 1,0
14.12.2017 02:00:00 5,3 1,6 - - 22 12 52 28 W 973,4 21 0,0
14.12.2017 01:00:00 5,2 2,0 - - 37 20 55 30 WSW 973,4 13 0,0
14.12.2017 00:00:00 5,3 1,3 - - 31 17 55 30 W 973,5 16 0,4
13.12.2017 23:00:00 5,2 0,8 - - 31 17 48 26 WSW 973,5 16 0,0
13.12.2017 22:00:00 4,6 1,6 - - 16 9 - - W 973,6 12 0,2
13.12.2017 21:00:00 2,8 0,8 - - 34 18 59 32 WNW 974,2 12 0,6
13.12.2017 20:00:00 3,0 1,2 - - 34 18 63 34 WNW 974,0 11 0,4
13.12.2017 19:00:00 3,4 1,0 - - 37 20 52 28 WSW 973,9 15 0,0
13.12.2017 18:00:00 3,9 1,2 - - 37 20 57 31 W 973,9 18 0,2
13.12.2017 17:00:00 3,8 2,4 - - 35 19 52 28 W 973,8 6 0,4
13.12.2017 16:00:00 3,9 2,0 - - 41 22 52 28 WSW 974,1 4,3 0,0
13.12.2017 15:00:00 4,2 1,9 - - 34 18 46 25 WSW 974,4 21 0,0
13.12.2017 14:00:00 4,3 2,1 - - 34 18 54 29 SW 975,2 13 0,0
13.12.2017 13:00:00 4,8 2,6 - - 37 20 52 28 SW 975,5 16 0,2
13.12.2017 12:00:00 4,6 3,6 - - 37 20 54 29 S 976,5 25 0,6
13.12.2017 11:00:00 4,6 2,3 - - 44 24 57 31 S 977,6 19 0,4
13.12.2017 10:00:00 5,8 2,6 - - 37 20 46 25 S 978,5 18 0,0
13.12.2017 09:00:00 5,1 1,8 5,4 6,7 28 15 - - S 979,6 20 0,0
13.12.2017 08:00:00 5,4 2,7 - - 28 15 - - SSW 980,5 14 0,0
13.12.2017 07:00:00 5,1 2,9 - - 35 19 46 25 SSW 981,4 14 0,0
13.12.2017 06:00:00 4,8 2,2 - - 29 16 50 27 WSW 982,2 21 0,0
13.12.2017 05:00:00 5,1 1,8 - - 37 20 52 28 WSW 983,0 22 0,0
13.12.2017 04:00:00 5,3 2,0 - - 41 22 57 31 WSW 983,6 26 0,0
13.12.2017 03:00:00 5,4 3,0 - - 35 19 46 25 SW 984,3 17 0,0
13.12.2017 02:00:00 5,3 3,1 - - 28 15 - - SW 985,0 27 0,0
13.12.2017 01:00:00 4,8 3,3 - - 26 14 50 27 SW 985,9 22 0,2
13.12.2017 00:00:00 5,6 2,4 - - 34 18 52 28 SSW 986,7 25 0,0
12.12.2017 23:00:00 5,7 2,8 - - 39 21 52 28 S 987,5 30 0,0
12.12.2017 22:00:00 5,6 1,5 - - 41 22 54 29 S 988,7 30 0,0
12.12.2017 21:00:00 5,4 2,0 - - 39 21 52 28 S 990,1 30 0,0
12.12.2017 20:00:00 5,0 0,5 - - 41 22 52 28 SSE 991,3 45 0,0
12.12.2017 19:00:00 4,9 1,0 - - 34 18 48 26 S 992,3 40 0,0
12.12.2017 18:00:00 4,8 0,7 - - 28 15 - - S 993,3 27 0,0
12.12.2017 17:00:00 4,0 0,3 - - 18 10 - - S 994,2 45 0,0
12.12.2017 16:00:00 3,7 0,5 - - 11 6 - - S 994,8 45 0,0
12.12.2017 15:00:00 4,1 1,0 - - 9 5 - - SW 995,7 27 0,0
12.12.2017 14:00:00 4,5 1,2 - - 15 8 - - W 996,3 40 0,0
12.12.2017 13:00:00 5,0 1,1 - - 9 5 - - WSW 996,7 24 -
12.12.2017 12:00:00 5,1 -0,2 - - 9 5 - - WSW 997,3 40 0,0
12.12.2017 11:00:00 4,1 -0,9 - - 2 1 - - WSW 997,8 30 0,0
12.12.2017 10:00:00 3,4 -0,6 - - 4 2 - - NNW 997,7 35 0,0
12.12.2017 09:00:00 1,6 -1,4 5,5 6,9 9 5 - - NNW 997,7 35 0,0
12.12.2017 08:00:00 3,0 0,2 - - 9 5 - - NNW 997,8 26 0,0
12.12.2017 07:00:00 2,7 -0,1 - - 11 6 - - NNW - - 0,0
12.12.2017 06:00:00 3,2 0,0 - - 15 8 - - N 997,2 40 0,0
12.12.2017 05:00:00 4,3 1,4 - - 18 10 - - N 997,2 50 0,0
12.12.2017 04:00:00 3,3 0,9 - - 18 10 - - NNE 997,1 50 0,2
12.12.2017 03:00:00 4,0 2,1 - - 24 13 - - N 996,8 30 0,4
12.12.2017 02:00:00 4,0 2,0 - - 16 9 - - N 996,2 45 0,0
12.12.2017 01:00:00 3,8 1,6 - - 15 8 - - N 995,6 50 0,0
12.12.2017 00:00:00 3,7 1,8 - - 15 8 - - N 995,1 50 0,0
11.12.2017 23:00:00 4,1 2,3 - - 18 10 - - N 994,6 50 0,0
11.12.2017 22:00:00 3,2 1,1 - - 11 6 - - NNW 994,5 40 0,0
11.12.2017 21:00:00 4,0 2,2 - - 13 7 - - NNW 994,4 27 0,0
11.12.2017 20:00:00 3,8 2,1 - - 9 5 - - NW 994,3 28 0,2
11.12.2017 19:00:00 3,3 1,8 - - 21 11 - - W 994,1 24 0,2
11.12.2017 18:00:00 3,7 1,4 - - 16 9 - - WNW 993,9 30 0,2
11.12.2017 17:00:00 3,8 1,3 - - 24 13 46 25 NNW 993,8 35 0,2
11.12.2017 16:00:00 4,3 0,1 - - 15 8 - - NW 993,2 50 0,0
11.12.2017 15:00:00 4,1 0,7 - - 18 10 - - WNW 992,7 40 0,0
11.12.2017 14:00:00 4,0 0,6 - - 18 10 - - NNW 992,1 45 0,0
11.12.2017 13:00:00 4,7 0,3 - - 16 9 - - N 991,6 40 0,0
11.12.2017 12:00:00 4,4 -0,3 - - 15 8 - - N 991,1 45 0,0
11.12.2017 11:00:00 4,0 -0,3 - - 18 10 - - N 990,4 40 0,0
11.12.2017 10:00:00 3,7 1,3 - - 13 7 - - N 989,5 45 0,0
11.12.2017 09:00:00 3,2 0,5 5,7 7,0 21 11 - - NE 988,6 50 0,0
11.12.2017 08:00:00 3,0 0,4 - - 18 10 - - NNE 987,9 50 0,0
11.12.2017 07:00:00 2,3 -0,6 - - 15 8 - - N 986,5 40 -
11.12.2017 06:00:00 2,3 -0,4 - - 13 7 - - N - 40 0,0
11.12.2017 05:00:00 1,7 -1,1 - - 9 5 - - NNE 984,6 40 0,0
11.12.2017 04:00:00 2,2 -0,2 - - 11 6 - - N 983,8 50 0,0
11.12.2017 03:00:00 1,9 -0,3 - - 11 6 - - N 983,0 45 0,0
11.12.2017 02:00:00 1,6 -0,3 - - 11 6 - - N 982,0 40 0,0
11.12.2017 01:00:00 1,5 -0,2 - - 11 6 - - N 981,5 40 0,0
11.12.2017 00:00:00 2,3 0,5 - - 9 5 - - N 980,7 50 0,0
10.12.2017 23:00:00 1,6 -0,1 - - 9 5 - - N 980,2 50 0,0
10.12.2017 22:00:00 2,5 0,6 - - 5 3 - - NE 979,4 45 0,0
10.12.2017 21:00:00 1,3 -0,2 - - 8 4 - - N 978,9 40 0,0
10.12.2017 20:00:00 1,2 -0,4 - - 8 4 - - NNE 978,3 26 0,0
10.12.2017 19:00:00 2,1 0,7 - - 11 6 - - NNE 977,8 45 0,0
10.12.2017 18:00:00 2,0 0,6 - - 8 4 - - N 977,4 18 0,4
10.12.2017 17:00:00 2,6 1,2 - - 2 1 - - WNW 977,0 17 0,4
10.12.2017 16:00:00 2,6 0,9 - - 11 6 - - N 976,6 30 0,0
10.12.2017 15:00:00 2,4 0,8 - - 5 3 - - NNE 976,6 8 0,0
10.12.2017 14:00:00 3,0 1,6 - - 11 6 - - N 976,8 30 0,0
10.12.2017 13:00:00 2,5 0,9 - - 5 3 - - N 977,2 29 0,8
10.12.2017 12:00:00 3,7 1,0 - - 15 8 - - NW 977,7 27 0,0
10.12.2017 11:00:00 3,4 1,2 - - 18 10 - - WNW 978,3 40 0,0
10.12.2017 10:00:00 3,2 1,1 - - 26 14 - - WNW 979,2 40 0,0
10.12.2017 09:00:00 3,4 1,0 6,0 7,2 26 14 - - WNW 980,0 25 0,0
10.12.2017 08:00:00 3,0 0,8 - - 22 12 - - WNW 980,9 27 0,0
10.12.2017 07:00:00 2,9 1,3 - - 26 14 48 26 WNW - 35 0,2
10.12.2017 06:00:00 3,0 0,5 - - 29 16 50 27 WNW 983,0 20 0,0
10.12.2017 05:00:00 1,8 0,5 - - 31 17 57 31 WNW 984,5 24 0,0
10.12.2017 04:00:00 2,4 1,1 - - 29 16 55 30 WNW 985,7 30 0,0
10.12.2017 03:00:00 1,9 0,5 - - 37 20 61 33 W 986,9 9 0,2
10.12.2017 02:00:00 1,9 0,0 - - 39 21 61 33 WNW 988,6 10 0,0
10.12.2017 01:00:00 1,6 0,3 - - 29 16 57 31 W 990,0 16 0,6
10.12.2017 00:00:00 2,4 -0,9 - - 35 19 54 29 WNW 991,1 29 0,0
09.12.2017 23:00:00 2,0 -1,4 - - 31 17 55 30 W 992,4 27 0,0
09.12.2017 22:00:00 2,1 -1,7 - - 34 18 63 34 WNW 993,8 30 0,0
09.12.2017 21:00:00 2,5 -2,2 - - 28 15 55 30 NW 994,7 30 0,0
09.12.2017 20:00:00 1,4 -2,5 - - 34 18 59 32 NW 996,2 28 0,4
09.12.2017 19:00:00 0,8 -2,0 - - 35 19 57 31 WNW 997,1 11 0,0
09.12.2017 18:00:00 0,8 -1,7 - - 42 23 72 39 NNW 997,9 1,7 0,0
09.12.2017 17:00:00 2,0 -3,9 - - 41 22 67 36 WNW 998,6 29 0,0
09.12.2017 16:00:00 1,6 -2,2 - - 39 21 70 38 WNW 999,6 19 0,0
09.12.2017 15:00:00 0,9 -0,6 - - 34 18 65 35 NNW 1000,4 19 0,0
09.12.2017 14:00:00 1,0 -2,3 - - 39 21 63 34 NW 1001,3 19 0,0
09.12.2017 13:00:00 1,1 -1,5 - - 35 19 67 36 NNW 1002,1 19 0,0
09.12.2017 12:00:00 -0,1 -1,2 - - 35 19 63 34 NNW 1003,1 15 0,0
09.12.2017 11:00:00 0,6 -2,6 - - 37 20 63 34 NNW 1003,8 24 0,0
09.12.2017 10:00:00 1,8 -3,8 - - 35 19 76 41 NW 1004,3 25 0,0
09.12.2017 09:00:00 0,5 -1,1 6,5 7,4 29 16 81 44 NW 1005,1 7 0,0
09.12.2017 08:00:00 1,1 -1,0 - - 31 17 78 42 NNW 1005,2 19 0,0
09.12.2017 07:00:00 0,8 -2,2 - - 41 22 68 37 NNW - - 0,0
09.12.2017 06:00:00 1,3 -2,6 - - 41 22 81 44 NW - 20 0,2
09.12.2017 05:00:00 1,8 -1,8 - - 29 16 78 42 NW 1006,1 17 0,0
09.12.2017 04:00:00 0,8 -1,5 - - 52 28 91 49 NNW 1006,6 18 0,0
09.12.2017 03:00:00 1,7 -2,2 - - 48 26 78 42 WNW 1006,9 10 0,0
09.12.2017 02:00:00 3,2 -3,8 - - 46 25 76 41 NW 1006,8 - 0,0
09.12.2017 01:00:00 2,7 -2,6 - - 42 23 83 45 NNW 1006,9 27 0,0
09.12.2017 00:00:00 3,7 -3,5 - - 50 27 87 47 NNW 1006,8 - 0,0
08.12.2017 23:00:00 4,1 -3,8 - - 52 28 83 45 NNW 1006,6 - 0,0
08.12.2017 22:00:00 3,4 -2,3 - - 52 28 78 42 NNW 1006,4 45 0,0
08.12.2017 21:00:00 4,0 -1,8 - - 46 25 80 43 NNW 1006,1 15 0,0
08.12.2017 20:00:00 4,9 -3,8 - - 48 26 78 42 NNW 1005,6 - 0,0
08.12.2017 19:00:00 4,6 -1,9 - - 42 23 89 48 NNW 1005,2 18 0,0
08.12.2017 18:00:00 4,9 -0,2 - - 52 28 96 52 NNW 1003,9 10 0,0

tt = temperature
td = dewpoint
tt -20cm = temperature -20cm
tt -100cm = temperature -100cm
ff = wind speed
fx = gusts
dd = wind direction
ppp = reduced air pressure
vv = visibility
rr = precipitation

Next stations